STARLINK-5055, 54015

Orbit data source: Space-Track

STARLINK-5055, 54015 is a payload satellite owned by SpaceX/Seattle (US) in LEO that was launched on Wed, 05 Oct 2022 UTC via an FALCON 9 launch vehicle from the Air Force Western Test Range (AFWTR). Payload-class satellites include a variety of spacecraft equipped with specific instruments for various scientific and technological missions. These include communications satellites like Starlink; space stations such as the ISS; scientific satellites like the Hubble; Earth observation satellites from companies like Planet Labs, Umbra, and HawkEye 360; GPS; miniature CubeSats for education and research; and military/defense satellites.

Loading next visibility...
Identifier
54015, 2022-125BD
Orbit
LEO
Country
Flag of USUS
Related business
Manufacturer
SpaceX/Seattle
Mission
Operational Commercial Communications
Bus & Motor
STARLINK, Unknown motor
Mass
305 kg wet, ~290 kg dry
Launch date (UTC)
2022-10-05 (4 years ago)
Launch vehicle
FALCON 9
Launch site
Air Force Western Test Range (AFWTR)
Object type
Payload
Rocket body
Debris
Shape & HBR
Box + 1 Pan, 10.1 m
Radar Cross Section
13.562 m², Large (>1 m²)

Expand to show TLE details & history
Last TLE update: 2 days ago

TLE from 2 days ago
0 STARLINK-5055
1 54015U 22125BD  26170.96128316  .00000048  00000-0  21114-4 0  9994
2 54015  53.2169 104.9201 0001440  87.1909 272.9248 15.08839872205049
Epoch: 2026-06-19T23:04Z
TLE epoch observation values (Epoch: 2026-06-19T23:04:14.865Z)
Latitude
0.00001°
Longitude
-149.32458°
Altitude
540.591 km
Speed
7.593 km/s
True Right ascension
06h 59m 40s
True Declination
0° 00' 00"
Sunlit
Object was in daylight at epoch
Visualization orbit readout
Latitude
Unknown
Longitude
Unknown
Altitude
Unknown
Speed
Unknown
Apparent Right ascension
Unknown
Apparent Declination
Unknown
Sunlit
N/A
Visualization observer readout
Local Sidereal Time
21:28:43
Azimuth
Unknown
Elevation
Unknown
Doppler factor
Unknown
Orbital elements
Apogee altitude
540.985 km
Perigee altitude
538.993 km
Semi-major axis
6,918.126 km
Eccentricity
0.00014
Inclination
53.2169°
RAAN
104.9201°
Arg. of periapsis
87.1909°
True anomaly
272.90832°
Mean anomaly
272.9248°
Eccentric anomaly
272.91656°
Mean motion
3.7719 °/min
Orbital period
95.44 mins
BSTAR
0.000021114
Loading maneuver chart data...
Computing Atmospheric mass density...
Loading historical data...
Loading historical data...
Loading historical data...
Loading historical data...
Loading historical data...
Loading historical data...
Loading historical data...

Documentation

Showing up to 5 results
|